Hlavní strana
METAR-TAF:

METAR-TAF

Letiště :

Jacksonville Municipal Airport

Jacksonville, Illinois, Spojené státy americké

zeměpisná šířka: 39-46-27N, zeměpisná délka: 090-14-19W, výška: 190 m

Aktuální stav počasí

Zpráva byla vytvořena před 20 minutami, v 16:35 UTC
Západoseverozápadní vítr 9 kt
Teplota 14°C
Vlhkost vzduchu 41%
Tlak 1024 hPa
Viditelnost: 16.1 km
Jasno

METAR: KIJX 301635Z AUTO 29009KT 10SM CLR 14/01 A3023 RMK AO2 T01400007

Čas: 11:55 (16:55 UTC)


TAF: chybějící

Stav a předpovědi počasí z více než 4 000 letišť (zprávy METAR a TAF).

Červené a žluté tečky na mapě představují dostupné meteorologické stanice.

Když kurzor umístíte na tečku, zobrazí se název stanice.

Pak kliknutím zobrazíte stav a předpověď počasí.

Chcete-li změnit mapu, kliknutím na zelené tlačítko se znaménkem +mapu přiblížíte, kliknutím na zelené tlačítko se znaménkem – mapu oddálíte a kliknutím na zelené šipky přejdete na sousední mapy.


METAR-TAF: